TimeCST,TemperatureF,Dew PointF,Humidity,Sea Level PressureIn,VisibilityMPH,Wind Direction,Wind SpeedMPH,Gust SpeedMPH,PrecipitationIn,Events,Conditions,WindDirDegrees,DateUTC
12:53 AM,33.1,28.0,82,30.03,10.0,West,17.3,26.5,N/A,,Overcast,280,2013-11-10 06:53:00
1:53 AM,33.1,28.0,82,30.06,10.0,WNW,18.4,21.9,N/A,,Overcast,290,2013-11-10 07:53:00
2:53 AM,34.0,28.0,79,30.08,10.0,WNW,13.8,21.9,N/A,,Overcast,300,2013-11-10 08:53:00
3:53 AM,34.0,28.0,79,30.12,10.0,WNW,11.5,21.9,N/A,,Overcast,290,2013-11-10 09:53:00
4:53 AM,33.1,28.0,82,30.16,10.0,WNW,9.2,-,0.00,,Overcast,300,2013-11-10 10:53:00
5:53 AM,33.1,26.1,75,30.19,10.0,WNW,9.2,16.1,0.00,,Overcast,300,2013-11-10 11:53:00
6:04 AM,33.8,26.6,75,30.14,10.0,WNW,11.5,20.7,N/A,,Overcast,300,2013-11-10 12:04:00
6:15 AM,33.8,26.6,75,30.14,10.0,NW,6.9,-,N/A,,Overcast,320,2013-11-10 12:15:00
6:53 AM,33.1,26.1,75,30.22,10.0,WNW,10.4,-,N/A,,Overcast,300,2013-11-10 12:53:00
7:53 AM,33.1,26.1,75,30.25,10.0,WNW,9.2,-,N/A,,Overcast,290,2013-11-10 13:53:00
8:44 AM,33.8,26.6,75,30.20,10.0,WNW,6.9,16.1,N/A,,Overcast,300,2013-11-10 14:44:00
8:53 AM,34.0,26.1,73,30.26,10.0,NW,9.2,-,N/A,,Overcast,310,2013-11-10 14:53:00
9:53 AM,34.0,25.0,70,30.27,10.0,WNW,8.1,-,N/A,,Overcast,290,2013-11-10 15:53:00
10:53 AM,35.1,25.0,67,30.28,10.0,WNW,6.9,-,N/A,,Overcast,290,2013-11-10 16:53:00
11:53 AM,35.1,25.0,67,30.26,10.0,West,10.4,-,N/A,,Overcast,280,2013-11-10 17:53:00
12:53 PM,35.1,24.1,64,30.25,10.0,West,9.2,17.3,N/A,,Mostly Cloudy,280,2013-11-10 18:53:00
1:05 PM,35.6,24.8,65,30.19,10.0,West,10.4,-,N/A,,Scattered Clouds,280,2013-11-10 19:05:00
1:53 PM,37.0,25.0,62,30.23,10.0,WSW,9.2,-,N/A,,Clear,240,2013-11-10 19:53:00
2:53 PM,37.0,24.1,59,30.21,10.0,SW,10.4,-,N/A,,Clear,230,2013-11-10 20:53:00
3:53 PM,36.0,25.0,64,30.19,10.0,SW,6.9,-,N/A,,Clear,220,2013-11-10 21:53:00
4:53 PM,36.0,25.0,64,30.17,10.0,SW,5.8,-,N/A,,Clear,220,2013-11-10 22:53:00
5:53 PM,36.0,25.0,64,30.17,10.0,WSW,11.5,-,N/A,,Clear,240,2013-11-10 23:53:00
6:53 PM,36.0,25.0,64,30.14,10.0,SW,8.1,-,N/A,,Partly Cloudy,230,2013-11-11 00:53:00
7:53 PM,35.1,25.0,67,30.13,10.0,WSW,8.1,-,N/A,,Overcast,240,2013-11-11 01:53:00
8:53 PM,36.0,26.1,67,30.12,10.0,WSW,9.2,-,N/A,,Overcast,240,2013-11-11 02:53:00
9:53 PM,36.0,26.1,67,30.10,10.0,WSW,9.2,-,N/A,,Overcast,250,2013-11-11 03:53:00
10:25 PM,33.8,28.4,81,30.05,2.5,West,15.0,21.9,0.00,Snow,Light Snow,260,2013-11-11 04:25:00
10:36 PM,33.8,28.4,81,30.05,1.5,West,12.7,-,0.00,Snow,Light Snow,260,2013-11-11 04:36:00
10:53 PM,32.0,30.0,92,30.10,2.0,WSW,9.2,-,0.00,Snow,Light Snow,250,2013-11-11 04:53:00
10:58 PM,32.0,30.2,93,30.04,3.0,WSW,8.1,-,0.00,Snow,Light Snow,250,2013-11-11 04:58:00
11:53 PM,32.0,30.0,92,30.08,9.0,West,9.2,-,0.01,,Overcast,260,2013-11-11 05:53:00